This demonstration page uses our WeatherBlox Daily Observations layout. Learn more.

Left ArrowRight Arrow

Hourly Observations for June 4, 2021

Temp ( °F °C ) Dew Point ( °F °C ) Humidity (%) Winds ( mph kmh ) Pressure ( in mb ) Visibility ( mi km ) Precip ( " mm )
12:15 am 00:15 Cloudy 63 17 63 17 100 100 N N/A 29.98 1015 10 16 N/A
12:35 am 00:35 Cloudy 63 17 63 17 100 100 SSW 6 9 29.97 1015 10 16 N/A
12:55 am 00:55 Cloudy 63 17 63 17 100 100 SW 7 11 29.96 1014 10 16 N/A
1:15 am 01:15 Cloudy 63 17 63 17 100 100 SSW 7 11 29.97 1015 10 16 N/A
1:35 am 01:35 Cloudy 63 17 63 17 100 100 SW 5 7 29.97 1015 10 16 N/A
1:55 am 01:55 Cloudy 63 17 63 17 100 100 SSW 3 6 29.97 1015 10 16 N/A
2:15 am 02:15 Cloudy 63 17 63 17 100 100 SSW 5 7 29.97 1015 10 16 N/A
2:35 am 02:35 Cloudy 63 17 63 17 100 100 SSW 5 7 29.96 1014 10 16 N/A
2:55 am 02:55 Partly Cloudy 63 17 61 16 94 94 SSW 5 7 29.96 1014 10 16 N/A
3:15 am 03:15 Mostly Cloudy 63 17 61 16 94 94 S 5 7 29.96 1014 10 16 N/A
3:35 am 03:35 Mostly Cloudy 63 17 61 16 94 94 N N/A 29.95 1014 10 16 N/A
3:55 am 03:55 Mostly Cloudy 63 17 61 16 94 94 SSW 3 6 29.95 1014 10 16 N/A
4:15 am 04:15 Partly Cloudy 61 16 61 16 100 100 N N/A 29.94 1014 10 16 N/A
4:35 am 04:35 Partly Cloudy 61 16 61 16 100 100 N N/A 29.93 1013 10 16 N/A
4:55 am 04:55 Partly Cloudy 61 16 61 16 100 100 SSW 5 7 29.93 1013 10 16 N/A
5:15 am 05:15 Clear 61 16 61 16 100 100 SSW 3 6 29.93 1013 10 16 N/A
5:35 am 05:35 Clear 61 16 61 16 100 100 S 5 7 29.93 1013 10 16 N/A
5:55 am 05:55 Sunny 61 16 61 16 100 100 SSW 5 7 29.94 1014 10 16 N/A
6:15 am 06:15 Sunny 61 16 61 16 100 100 N N/A 29.94 1014 10 16 N/A
6:35 am 06:35 Sunny 59 15 59 15 100 100 N N/A 29.95 1014 10 16 N/A
6:55 am 06:55 Sunny 59 15 59 15 100 100 N N/A 29.95 1014 10 16 N/A
7:15 am 07:15 Sunny 59 15 59 15 100 100 S 3 6 29.96 1015 10 16 N/A
7:35 am 07:35 Partly Cloudy 59 15 59 15 100 100 N N/A 29.96 1015 10 16 N/A
7:55 am 07:55 Mostly Cloudy 59 15 59 15 100 100 N N/A 29.96 1015 10 16 N/A
8:15 am 08:15 Mostly Cloudy 61 16 61 16 100 100 N N/A 29.97 1015 10 16 N/A
8:35 am 08:35 Mostly Cloudy 61 16 61 16 100 100 N N/A 29.97 1015 10 16 N/A
8:55 am 08:55 Cloudy 61 16 61 16 100 100 S 3 6 29.98 1015 10 16 N/A
9:15 am 09:15 Mostly Cloudy 63 17 61 16 94 94 N N/A 29.98 1015 10 16 N/A
9:35 am 09:35 Mostly Cloudy 64 18 61 16 88 88 N N/A 29.97 1015 10 16 N/A
9:55 am 09:55 Mostly Cloudy 64 18 61 16 88 88 N N/A 29.97 1015 10 16 N/A
10:15 am 10:15 Partly Cloudy 66 19 63 17 88 88 N N/A 29.96 1015 10 16 N/A
10:35 am 10:35 Partly Cloudy 68 20 63 17 83 83 NW 6 9 29.97 1015 10 16 N/A
10:55 am 10:55 Mostly Cloudy 70 21 61 16 73 73 NNW 7 11 29.97 1015 10 16 N/A
11:15 am 11:15 Mostly Cloudy 70 21 59 15 69 69 NNW 7 11 29.97 1015 10 16 N/A
11:35 am 11:35 Cloudy 70 21 59 15 69 69 NW 10 17 29.97 1015 10 16 N/A
11:55 am 11:55 Cloudy with Light Rain 70 21 59 15 69 69 WNW 13 20 29.97 1015 10 16 N/A
12:15 pm 12:15 Cloudy 68 20 61 16 78 78 W 3 6 29.96 1015 10 16 N/A
12:35 pm 12:35 Partly Cloudy 72 22 61 16 69 69 WNW 6 9 29.95 1014 10 16 N/A
12:55 pm 12:55 Partly Cloudy 75 24 61 16 61 61 WNW 13 20 29.95 1014 10 16 N/A
1:15 pm 13:15 Partly Cloudy 75 24 61 16 61 61 NW 12 19 29.94 1014 10 16 N/A
1:35 pm 13:35 Mostly Cloudy 75 24 59 15 57 57 NNW 10 17 29.94 1014 10 16 N/A
1:55 pm 13:55 Partly Cloudy 79 26 61 16 54 54 W 14 22 29.92 1013 10 16 N/A
2:15 pm 14:15 Partly Cloudy 79 26 61 16 54 54 NW 13 20 29.92 1013 10 16 N/A
2:35 pm 14:35 Partly Cloudy 79 26 59 15 51 51 NNW 7 11 29.91 1013 10 16 N/A
2:55 pm 14:55 Partly Cloudy 79 26 59 15 51 51 NNW 10 17 29.91 1013 10 16 N/A
3:15 pm 15:15 Partly Cloudy 81 27 59 15 48 48 WNW 14 22 29.91 1013 10 16 N/A
3:35 pm 15:35 Partly Cloudy 79 26 59 15 51 51 NW 15 24 29.91 1013 10 16 N/A
3:55 pm 15:55 Partly Cloudy 81 27 59 15 48 48 N 10 17 29.91 1013 10 16 N/A
4:15 pm 16:15 Partly Cloudy 81 27 59 15 48 48 NNW 10 17 29.91 1013 10 16 N/A
4:35 pm 16:35 Partly Cloudy 81 27 57 14 45 45 NNW 13 20 29.90 1013 10 16 N/A
4:55 pm 16:55 Sunny 81 27 55 13 42 42 NNW 7 11 29.90 1013 10 16 N/A
5:15 pm 17:15 Sunny 81 27 55 13 42 42 NW 9 15 29.90 1013 10 16 N/A
5:35 pm 17:35 Partly Cloudy 82 28 55 13 40 40 NNW 9 15 29.91 1013 10 16 N/A
5:55 pm 17:55 Partly Cloudy 82 28 55 13 40 40 NW 10 17 29.91 1013 10 16 N/A
6:15 pm 18:15 Sunny 82 28 55 13 40 40 WNW 13 20 29.91 1013 10 16 N/A
6:35 pm 18:35 Sunny 81 27 55 13 42 42 NW 6 9 29.91 1013 10 16 N/A
6:55 pm 18:55 Sunny 81 27 55 13 42 42 NW 9 15 29.91 1013 10 16 N/A
7:15 pm 19:15 Sunny 81 27 55 13 42 42 NW 8 13 29.91 1013 10 16 N/A
7:35 pm 19:35 Sunny 79 26 55 13 45 45 NW 6 9 29.92 1013 10 16 N/A
7:55 pm 19:55 Sunny 79 26 55 13 45 45 N 5 7 29.93 1014 10 16 N/A
8:15 pm 20:15 Sunny 79 26 57 14 48 48 NNW 3 6 29.93 1014 10 16 N/A
8:35 pm 20:35 Clear 77 25 59 15 54 54 N N/A 29.94 1014 10 16 N/A
8:55 pm 20:55 Clear 77 25 59 15 54 54 N N/A 29.95 1014 10 16 N/A
9:15 pm 21:15 Clear 73 23 59 15 61 61 N N/A 29.97 1015 10 16 N/A
9:35 pm 21:35 Clear 72 22 59 15 65 65 N N/A 29.98 1015 10 16 N/A
9:55 pm 21:55 Clear 70 21 61 16 73 73 N N/A 29.99 1016 10 16 N/A
10:15 pm 22:15 Clear 70 21 61 16 73 73 N N/A 30.00 1016 10 16 N/A
10:35 pm 22:35 Clear 68 20 61 16 78 78 N N/A 30.01 1016 10 16 N/A
10:55 pm 22:55 Partly Cloudy 66 19 61 16 83 83 W 3 6 30.01 1016 10 16 N/A
11:15 pm 23:15 Partly Cloudy 64 18 61 16 88 88 W 6 9 30.01 1016 10 16 N/A
11:35 pm 23:35 Clear 64 18 61 16 88 88 W 6 9 30.01 1016 10 16 N/A
11:55 pm 23:55 Clear 64 18 59 15 83 83 W 6 9 30.01 1016 10 16 N/A

Powered by AerisWeather